Weather History for KMCD - February, 2013

Change the Weather History Date:

Wednesday, February 13, 2013

  Actual Average Record
Temperature  
Mean Temperature 29 °F -  
Max Temperature 33 °F 25 °F 40 °F (1976)
Min Temperature 25 °F 13 °F -7 °F (1985)
Degree Days  
Heating Degree Days 36    
Moisture  
Dew Point 26 °F    
Average Humidity 85    
Maximum Humidity 93    
Minimum Humidity 74    
Precipitation  
Precipitation 0.00 in - - ()
Sea Level Pressure  
Sea Level Pressure 29.67 in    
Wind  
Wind Speed 9 mph (SW)    
Max Wind Speed 15 mph    
Max Gust Speed 25 mph    
Visibility 7 miles    
Events      
Averages and records for this station are not official NWS values.
T = Trace of Precipitation, MM = Missing Value Source: NWS Daily Summary

Daily Weather History Graph

Daily Weather History Graph

Search for Another Location

Airport or City:

Trip Planner

Search our weather history database for the weather conditions in past years. The results will help you decide how hot, cold, wet, or windy it might be!

Date:

Astronomy

Feb. 13, 2013 Rise Set
Actual Time 7:43 AM EST 6:02 PM EST
Civil Twilight 7:12 AM EST 6:33 PM EST
Nautical Twilight 6:37 AM EST 7:08 PM EST
Astronomical Twilight 6:03 AM EST 7:42 PM EST
Moon 8:58 AM EST (2/13) 10:20 PM EST (2/13)
Length of Visible Light 11h 20m
Length of Day
10h 18m
Waxing Crescent, 13% of the Moon is Illuminated
Feb 13
Waxing Crescent
Feb 17
First Quarter
Feb 25
Full
Mar 4
Last Quarter
Mar 11
New

Hourly Weather History & Observations

Time (EST) Temp. Windchill Dew Point Humidity Pressure Visibility Wind Dir Wind Speed Gust Speed Precip Events Conditions
12:14 AM 27.1 °F 16.9 °F 20.3 °F 75% 29.78 in 10.0 mi WSW 11.5 mph 18.4 mph N/A   Overcast
12:34 AM 27.5 °F 17.4 °F 20.3 °F 74% 29.77 in 10.0 mi WSW 11.5 mph 18.4 mph N/A   Overcast
12:53 AM 27.5 °F 18.6 °F 20.8 °F 76% 29.77 in 10.0 mi WSW 9.2 mph 17.3 mph N/A   Overcast
1:14 AM 27.5 °F 18.0 °F 21.2 °F 77% 29.77 in 10.0 mi SW 10.4 mph 18.4 mph N/A   Overcast
1:34 AM 27.9 °F 17.8 °F 21.2 °F 76% 29.76 in 10.0 mi WSW 11.5 mph 18.4 mph N/A   Overcast
1:53 AM 27.9 °F 17.3 °F 21.2 °F 76% 29.75 in 10.0 mi WSW 12.7 mph 17.3 mph N/A   Overcast
2:14 AM 28.0 °F 18.6 °F 22.1 °F 78% 29.75 in 10.0 mi SW 10.4 mph 16.1 mph N/A   Overcast
2:33 AM 28.0 °F 19.3 °F 21.6 °F 77% 29.74 in 10.0 mi WSW 9.2 mph 17.3 mph N/A   Overcast
2:54 AM 28.0 °F 19.3 °F 22.1 °F 78% 29.74 in 10.0 mi SW 9.2 mph - N/A   Overcast
3:13 AM 28.0 °F 20.0 °F 22.5 °F 80% 29.73 in 10.0 mi SW 8.1 mph - N/A   Overcast
3:34 AM 26.4 °F 20.9 °F 21.2 °F 81% 29.73 in 10.0 mi South 4.6 mph - N/A   Overcast
3:54 AM 25.7 °F 19.0 °F 21.2 °F 83% 29.72 in 10.0 mi South 5.8 mph - N/A   Overcast
4:13 AM 25.7 °F 17.1 °F 21.6 °F 84% 29.71 in 10.0 mi South 8.1 mph - N/A   Overcast
4:34 AM 26.2 °F 17.8 °F 22.1 °F 84% 29.71 in 10.0 mi South 8.1 mph - N/A   Overcast
4:54 AM 26.6 °F 18.2 °F 22.6 °F 85% 29.70 in 10.0 mi South 8.1 mph - N/A   Overcast
5:13 AM 26.8 °F 18.5 °F 22.8 °F 85% 29.70 in 10.0 mi South 8.1 mph 16.1 mph N/A   Overcast
5:34 AM 27.0 °F 18.0 °F 22.8 °F 84% 29.70 in 10.0 mi SSW 9.2 mph 17.3 mph N/A   Overcast
5:54 AM 27.1 °F 17.5 °F 23.0 °F 84% 29.69 in 10.0 mi South 10.4 mph - N/A   Overcast
6:13 AM 27.3 °F 18.4 °F 23.0 °F 84% 29.69 in 10.0 mi South 9.2 mph 16.1 mph N/A   Overcast
6:34 AM 27.3 °F 18.4 °F 23.0 °F 84% 29.68 in 10.0 mi SSW 9.2 mph - N/A   Overcast
6:53 AM 27.5 °F 19.3 °F 23.4 °F 84% 29.68 in 10.0 mi SSW 8.1 mph - N/A   Overcast
7:14 AM 27.9 °F 19.1 °F 23.7 °F 84% 29.67 in 10.0 mi SSW 9.2 mph - N/A   Overcast
7:34 AM 27.9 °F 19.1 °F 23.7 °F 84% 29.66 in 10.0 mi South 9.2 mph - N/A   Overcast
7:53 AM 28.2 °F 19.5 °F 23.9 °F 84% 29.66 in 10.0 mi South 9.2 mph - N/A   Overcast
8:14 AM 28.4 °F 20.4 °F 23.9 °F 83% 29.66 in 10.0 mi South 8.1 mph - N/A   Overcast
8:34 AM 28.6 °F 20.7 °F 24.3 °F 84% 29.66 in 10.0 mi SSW 8.1 mph - N/A   Overcast
8:53 AM 29.1 °F 23.0 °F 24.8 °F 84% 29.65 in 10.0 mi SW 5.8 mph - N/A   Overcast
9:14 AM 30.2 °F 24.3 °F 25.7 °F 83% 29.65 in 7.0 mi SSW 5.8 mph - N/A   Overcast
9:34 AM 31.1 °F 23.7 °F 26.8 °F 84% 29.65 in 7.0 mi SW 8.1 mph - N/A   Overcast
9:53 AM 31.6 °F 23.1 °F 27.1 °F 83% 29.65 in 7.0 mi SW 10.4 mph 17.3 mph N/A   Overcast
10:14 AM 32.0 °F 22.1 °F 27.3 °F 83% 29.64 in 7.0 mi WSW 13.8 mph 20.7 mph N/A   Overcast
10:34 AM 32.0 °F 22.1 °F 27.7 °F 84% 29.64 in 7.0 mi WSW 13.8 mph 21.9 mph N/A   Overcast
10:53 AM 32.0 °F 22.5 °F 27.9 °F 85% 29.64 in 7.0 mi WSW 12.7 mph 18.4 mph N/A   Overcast
11:14 AM 32.0 °F 22.5 °F 28.2 °F 86% 29.64 in 5.0 mi WSW 12.7 mph 18.4 mph N/A   Overcast
11:34 AM 32.0 °F 23.0 °F 28.6 °F 87% 29.64 in 5.0 mi WSW 11.5 mph 21.9 mph N/A   Overcast
11:53 AM 32.0 °F 22.5 °F 29.1 °F 89% 29.64 in 4.0 mi WSW 12.7 mph 17.3 mph N/A   Overcast
12:14 PM 32.0 °F 23.0 °F 27.7 °F 84% 29.63 in 5.0 mi WSW 11.5 mph 25.3 mph N/A   Overcast
12:34 PM 32.5 °F 24.2 °F 27.3 °F 81% 29.63 in 7.0 mi WSW 10.4 mph 24.2 mph N/A   Overcast
12:54 PM 32.5 °F 22.3 °F 27.1 °F 80% 29.63 in 7.0 mi WSW 15.0 mph 24.2 mph N/A   Overcast
1:14 PM 32.4 °F 23.0 °F 27.3 °F 82% 29.63 in 7.0 mi WSW 12.7 mph 24.2 mph N/A   Overcast
1:34 PM 32.9 °F 22.8 °F 27.5 °F 81% 29.63 in 7.0 mi WSW 15.0 mph 23.0 mph N/A   Overcast
1:54 PM 32.9 °F 23.7 °F 27.5 °F 81% 29.63 in 7.0 mi West 12.7 mph 23.0 mph N/A   Overcast
2:14 PM 32.9 °F 23.7 °F 27.5 °F 81% 29.63 in 7.0 mi West 12.7 mph 23.0 mph N/A   Overcast
2:34 PM 32.9 °F 23.7 °F 27.5 °F 81% 29.63 in 7.0 mi WSW 12.7 mph 24.2 mph N/A   Overcast
2:54 PM 33.1 °F 23.9 °F 27.7 °F 81% 29.63 in 7.0 mi West 12.7 mph 21.9 mph N/A   Overcast
3:14 PM 32.9 °F 25.3 °F 28.0 °F 82% 29.63 in 7.0 mi WSW 9.2 mph 17.3 mph N/A   Overcast
3:33 PM 32.5 °F 23.7 °F 27.9 °F 83% 29.63 in 7.0 mi WSW 11.5 mph 17.3 mph N/A   Overcast
3:54 PM 32.4 °F 22.1 °F 28.0 °F 84% 29.64 in 7.0 mi WSW 15.0 mph 20.7 mph N/A   Overcast
4:14 PM 32.4 °F 23.5 °F 28.2 °F 85% 29.63 in 7.0 mi WSW 11.5 mph 20.7 mph N/A   Overcast
4:33 PM 32.2 °F 24.4 °F 28.6 °F 87% 29.63 in 5.0 mi WSW 9.2 mph - N/A   Overcast
4:54 PM 32.0 °F 27.5 °F 29.3 °F 90% 29.64 in 4.0 mi WSW 4.6 mph 16.1 mph N/A   Overcast
5:14 PM 32.4 °F 24.6 °F 29.1 °F 88% 29.64 in 4.0 mi WSW 9.2 mph 16.1 mph N/A   Mostly Cloudy
5:33 PM 32.0 °F 24.8 °F 28.6 °F 87% 29.64 in 5.0 mi WSW 8.1 mph - N/A   Scattered Clouds
5:54 PM 32.0 °F 26.4 °F 29.1 °F 89% 29.64 in 4.0 mi SW 5.8 mph - N/A   Mostly Cloudy
6:14 PM 31.6 °F - 29.5 °F 92% 29.65 in 3.0 mi Calm Calm - N/A   Mostly Cloudy
6:33 PM 31.6 °F 27.0 °F 29.7 °F 92% 29.64 in 4.0 mi South 4.6 mph - N/A   Overcast
6:54 PM 31.5 °F 28.1 °F 29.7 °F 93% 29.65 in 4.0 mi SSW 3.5 mph - N/A   Mostly Cloudy
7:14 PM 31.8 °F 25.4 °F 29.8 °F 92% 29.65 in 5.0 mi SW 6.9 mph - N/A   Overcast
7:33 PM 32.0 °F 24.8 °F 29.3 °F 90% 29.65 in 5.0 mi SW 8.1 mph - N/A   Overcast
7:54 PM 31.6 °F 23.7 °F 29.1 °F 90% 29.65 in 5.0 mi SW 9.2 mph - N/A   Mostly Cloudy
8:13 PM 31.8 °F 25.4 °F 29.3 °F 90% 29.65 in 5.0 mi SW 6.9 mph - N/A   Scattered Clouds
8:34 PM 31.5 °F 24.9 °F 29.3 °F 92% 29.65 in 5.0 mi SW 6.9 mph - N/A   Overcast
8:54 PM 31.1 °F 26.4 °F 29.1 °F 92% 29.66 in 5.0 mi South 4.6 mph - N/A   Overcast
9:13 PM 31.1 °F 27.7 °F 28.9 °F 92% 29.65 in 5.0 mi South 3.5 mph - N/A   Overcast
9:34 PM 30.9 °F 26.2 °F 28.4 °F 90% 29.65 in 5.0 mi South 4.6 mph - N/A   Overcast
9:54 PM 30.7 °F 27.3 °F 28.2 °F 90% 29.65 in 5.0 mi South 3.5 mph - N/A   Mostly Cloudy
10:13 PM 30.6 °F 24.7 °F 28.2 °F 91% 29.65 in 5.0 mi SSE 5.8 mph - N/A   Mostly Cloudy
10:34 PM 30.6 °F 24.7 °F 27.9 °F 90% 29.65 in 7.0 mi SE 5.8 mph - N/A   Overcast
10:54 PM 30.6 °F 27.1 °F 27.9 °F 90% 29.65 in 7.0 mi SSE 3.5 mph - N/A   Overcast
11:13 PM 30.9 °F 26.2 °F 28.2 °F 90% 29.65 in 7.0 mi South 4.6 mph - N/A   Overcast
11:34 PM 30.9 °F 25.2 °F 28.0 °F 89% 29.64 in 7.0 mi South 5.8 mph - N/A   Overcast
11:54 PM 31.1 °F 25.4 °F 28.2 °F 89% 29.64 in 7.0 mi SSE 5.8 mph - N/A   Overcast